Location: Newark
(13.8625°N, 100.5144°E)
Time: 01:40:18
(UTC+00:00)

Hubble Space Telescope - Pass Details

Date: 14 May 2021
Orbit: 535 x 539 km, 28.5° (Epoch: 21 June)

Event Time Altitude Azimuth Distance (km) Brightness Sun altitude
Exits shadow 22:01:41 15° 222° (SW) 1,460 2.4 -12.1°
Maximum altitude 22:04:47 47° 151° (SSE) 702 1.4 -11.4°
Drops below altitude 10° 22:08:44 10° 77° (ENE) 1,772 4.9 -10.5°
Sets 22:11:03 0° 71° (ENE) 2,661 6.7 -10.0°
